Weather observations for the past three days for
Dothan, Dothan Regional Airport
Imperial (Metric)
Date Time (cdt) Wind (mph) Vis. (mi.) Weather Sky Cond. Temperature (ºF) Relative Humidity Wind Chill (°F) Heat Index (°F) Pressure Precipitation (in)
Air Dwpt 6 hour altimeter (in) sea level (mb) 1 hr 3 hr 6 hr
Max. Min.
13 13:53 E 9 10.00 Fair CLR 93.9 66.9 41% 98 29.94 1013.3
13 12:53 NE 10 G 17 10.00 A Few Clouds FEW045 93 70 93 75 47% 99 29.96 1013.8
13 11:53 NE 10 G 17 10.00 A Few Clouds FEW038 93 72 50% 101 29.98 1014.3
13 10:53 Vrbl 5 10.00 Mostly Cloudy SCT050 BKN070 88 72 59% 95 29.98 1014.6
13 09:53 Calm 10.00 Fair CLR 86 72 63% 92 29.98 1014.7
13 08:53 Vrbl 3 10.00 Fair CLR 82 72 72% 87 29.99 1014.8
13 07:53 E 7 10.00 Fair CLR 79 71.1 77% 82 29.98 1014.6
13 06:53 E 5 10.00 Fair CLR 75 68 75.9 72 79% 76 29.97 1014.1
13 05:53 Calm 10.00 Fair CLR 73 68 84% 29.95 1013.6
13 04:53 E 5 10.00 Fair CLR 73 68 84% 29.94 1013.1
13 03:53 Calm 10.00 Overcast OVC050 73.9 69.1 85% 29.92 1012.6
13 02:53 E 3 10.00 Fair CLR 73.9 69.1 85% 29.92 1012.7
13 01:53 NE 3 10.00 Fair CLR 73.9 69.1 85% 29.93 1012.7
13 00:53 Calm 10.00 Fair CLR 75 69.1 86 75 82% 75 29.94 1013.3
12 23:53 E 3 10.00 Partly Cloudy SCT060 SCT070 78.1 64.9 64% 80 29.96 1014.0
12 22:53 N 3 10.00 Partly Cloudy SCT070 77 66 69% 79 29.96 1013.8
12 21:53 N 3 10.00 Fair CLR 79 66.9 67% 81 29.95 1013.6
12 20:53 NW 6 10.00 Fair CLR 81 66 61% 83 29.94 1013.2
12 19:53 NW 5 10.00 Fair CLR 82.9 64.9 55% 85 29.94 1013.3
12 18:53 NW 7 10.00 Fair CLR 86 64.9 91.9 84.9 49% 88 29.94 1013.1
12 17:53 NW 9 10.00 Fair CLR 88 62.1 42% 88 29.93 1012.9
12 16:53 NW 9 10.00 Fair CLR 89.1 63 42% 90 29.93 1012.9
12 15:53 Calm 10.00 Fair CLR 90 62.1 39% 90 29.93 1012.8
12 14:53 SW 8 10.00 Fair CLR 90 63 41% 91 29.94 1013.3
12 13:53 Calm 10.00 Fair CLR 90 64 42% 91 29.96 1013.8
12 12:53 W 9 10.00 Fair CLR 91 62.1 91.9 71.1 38% 92 29.96 1013.9
12 11:53 W 7 10.00 Fair CLR 90 61 38% 90 29.98 1014.4
12 10:53 Calm 10.00 Fair CLR 88 60.1 39% 88 29.98 1014.5
12 09:53 Calm 10.00 Fair CLR 88 61 40% 88 29.99 1014.7
12 08:53 N 3 10.00 Fair CLR 84 64 51% 85 29.98 1014.6
12 06:53 NE 5 10.00 Fair CLR 72 62.1 72 68 71% 29.96 1014.1
12 05:53 N 3 10.00 Fair CLR 69.1 62.1 78% 29.94 1013.5
12 04:53 NW 6 10.00 Fair CLR 69.1 63 81% 29.93 1013.1
12 03:53 Calm 10.00 Fair CLR 69.1 63 81% 29.92 1012.7
12 02:53 Calm 10.00 Fair CLR 70 63 79% 29.92 1012.6
12 01:53 N 3 10.00 Fair CLR 70 63 79% 29.92 1012.6
12 00:53 N 3 10.00 Fair CLR 72 62.1 86 72 71% 29.94 1013.1
11 23:53 N 6 10.00 Fair CLR 72 63 73% 29.94 1013.4
11 22:53 N 6 10.00 Fair CLR 75 62.1 64% 77 29.94 1013.1
11 21:53 N 3 10.00 Fair CLR 75.9 64 67% 78 29.92 1012.7
11 20:53 N 6 10.00 Fair CLR 79 64 60% 81 29.91 1012.3
11 19:53 N 5 10.00 Fair CLR 81 63 54% 82 29.9 1011.8
11 18:53 N 8 10.00 Fair CLR 86 60.1 91.9 86 42% 86 29.89 1011.6
11 17:53 NE 7 10.00 Fair CLR 89.1 62.1 41% 89 29.88 1011.4
11 16:53 NE 6 10.00 Fair CLR 89.1 57.9 35% 88 29.88 1011.2
11 15:53 NE 9 10.00 Fair CLR 89.1 62.1 41% 89 29.88 1011.0
11 14:53 NE 6 10.00 Fair CLR 90 62.1 39% 90 29.89 1011.5
11 13:53 NE 7 10.00 Fair CLR 90 60.1 37% 90 29.91 1012.0
11 12:53 N 8 10.00 Fair CLR 90 62.1 90 73 39% 90 29.92 1012.4
11 11:53 Calm 10.00 Fair CLR 86 59 40% 85 29.92 1012.6
11 10:53 N 10 10.00 A Few Clouds FEW047 86 60.1 42% 86 29.93 1012.8
11 09:53 NE 8 10.00 Fair CLR 82.9 62.1 49% 84 29.92 1012.6
11 08:53 NE 9 10.00 Fair CLR 80.1 61 52% 81 29.92 1012.6
11 07:53 NE 9 10.00 Fair CLR 77 64 64% 79 29.92 1012.6
11 06:53 N 8 10.00 Fair CLR 73 63 75.9 70 71% 29.91 1012.4
11 05:53 N 7 10.00 Overcast OVC042 71.1 64 79% 29.9 1012.1
11 04:53 N 6 10.00 Fair CLR 71.1 64 79% 29.89 1011.7
11 03:53 N 7 10.00 A Few Clouds FEW095 72 64 76% 29.88 1011.3
11 02:53 N 6 10.00 Fair CLR 73.9 66.9 79% 29.87 1010.9
11 01:53 NW 7 9.00 Fair CLR 75.9 73 91% 76 29.87 1010.9
11 00:53 Calm 10.00 Fair CLR 75.9 72 82 75 88% 76 29.89 1011.3
10 23:53 S 3 10.00 Mostly Cloudy BKN039 75.9 73.9 94% 75 29.89 1011.4
10 22:53 SE 6 10.00 Partly Cloudy FEW028 SCT033 77 73 88% 78 29.88 1011.1
10 21:53 W 3 10.00 Overcast BKN036 OVC055 80.1 72 76% 84 29.86 1010.5
10 20:53 SW 3 10.00 Mostly Cloudy BKN036 BKN085 81 72 74% 85 29.84 1009.7
10 19:53 NW 3 10.00 Fair CLR 81 73 77% 86 29.81 1008.8
10 18:53 N 5 10.00 A Few Clouds FEW100 84.9 70 96.1 79 61% 89 29.81 1008.6
10 17:53 Calm 10.00 Partly Cloudy SCT075 84 69.1 61% 88 29.79 1008.3
10 16:53 NE 7 10.00 Thunderstorm in Vicinity SCT039 BKN080 BKN090 79 66.9 67% 81 29.82 1009.1
10 15:53 N 8 10.00 Thunderstorm BKN055 86 72 63% 92 29.78 1007.7
10 14:53 W 5 10.00 Mostly Cloudy BKN055 91.9 69.1 47% 97 29.79 1007.9
Date Time (cdt) Wind (mph) Vis. (mi.) Weather Sky Cond. Air Dwpt Max. Min. Relative Humidity Wind Chill (°F) Heat Index (°F) altimeter (in) sea level (mb) 1 hr 3 hr 6 hr
6 hour
Temperature (ºF) Pressure Precipitation (in)